Regional Weather Roundup
Issued by NWS

Home | Current Version | Previous Version | Graphics & Text | Print | Product List | Glossary On
Versions: 1 2 3 4 5 6 7 8 9 10 11 12 13 14 15 16 17 18 19 20 21 22 23 24 25 26 27 28 29 30 31 32 33 34 35 36 37 38 39 40 41 42 43 44 45 46 47 48 49 50
000
ASUS45 KCYS 271310
RWRWY

WYOMING REGIONAL WEATHER ROUNDUP
NATIONAL WEATHER SERVICE CHEYENNE WY
700 AM MDT THU JUL 27 2017

NOTE:  "FAIR" INDICATES FEW OR NO CLOUDS BELOW 12,000 FEET
WITH NO SIGNIFICANT WEATHER AND/OR OBSTRUCTIONS TO VISIBILITY.

WYZ001-271400-
YELLOWSTONE NATIONAL PARK

CITY           SKY/WX    TMP DP  RH WIND       PRES   REMARKS
LK YELLOWSTONE   N/A     43  43 100 CALM      30.42R
W YELLOWSTONE  NOT AVBL

$$
WYZ002>013-054>058-071-098>099-271400-
NORTHERN WYOMING

CITY           SKY/WX    TMP DP  RH WIND       PRES   REMARKS
JACKSON        CLEAR     45  45 100 N8        30.33S
CODY           FAIR      66  51  58 N5        30.18R
GREYBULL       FAIR      67  55  65 N3        30.09S
WORLAND        FAIR      63  55  75 S8        30.12R
SHERIDAN       FAIR      61  54  77 CALM      30.09S
BUFFALO        FAIR      65  53  65 NW3       30.15S
GILLETTE       FAIR      67  58  72 S16       30.12S
HULETT         FAIR      72  59  64 S7        30.16S
NEWCASTLE      PTSUNNY   70  59  68 SE14G25   30.17F

$$
WYZ014>020-022>026-101>103-271400-
CENTRAL WYOMING

CITY           SKY/WX    TMP DP  RH WIND       PRES   REMARKS
BIG PINEY      FAIR      51  47  86 E5        30.35S
PINEDALE       FAIR      46  45  93 W5        30.36R
DUBOIS         FAIR      50  43  76 NW14      30.33S
LANDER         FAIR      62  53  72 CALM      30.21S
RIVERTON       FAIR      60  56  86 VRB3      30.21S
CASPER         FAIR      59  56  89 CALM      30.20S
DOUGLAS        FAIR      64  59  83 SE10      30.20S

$$
WYZ021-027>030-104>119-271400-
SOUTHERN WYOMING

CITY           SKY/WX    TMP DP  RH WIND       PRES   REMARKS
EVANSTON       FAIR      52  50  93 S6        30.36R
KEMMERER         N/A     54  48  82 NW10      30.36S
FORT BRIDGER   FAIR      58  49  74 W9        30.38R
ROCK SPRINGS   FAIR      59  51  75 W3        30.33R
RAWLINS        FAIR      57  55  93 SE3       30.32F
LARAMIE        FAIR      54  53  97 S5        30.34R
CHEYENNE       FAIR      60  57  89 S3        30.28S
TORRINGTON     PTSUNNY   66  65  96 SE12      30.17S
PINE BLUFFS    CLOUDY    63  63 100 SE7       30.25R

$$



USA.gov is the U.S. government's official web portal to all federal, state and local government web resources and services.